User: anonymous   Login
Location: Oshawa
(43.9000°N, 78.8670°W)
Time: 05:12:22
(UTC-05:00)
Language:

Cosmos 1408 Rocket - Orbit

View from above orbital plane
View from above orbital plane
View from above satellite
View from above satellite

Ground track
Ground track

The orbit data is extracted from the following two-line orbital elements,

1 13553U 82092B   16038.85572764  .00000250  00000-0  27020-4 0  9992
2 13553  82.5715 335.5349 0020058 239.5678 172.9861 14.84019380803579
Epoch (UTC): 07 February 2016 20:32:14
Eccentricity: 0.0020058
inclination: 82.5715°
perigee height: 602 km
apogee height: 631 km
right ascension of ascending node: 335.5349°
argument of perigee: 239.5678°
revolutions per day: 14.84019380
mean anomaly at epoch: 172.9861°
orbit number at epoch: 80357

The dashed part of the orbit path shows where the satellite is in the earth's shadow,  

DLR